ONEWEB-0618 (55159 NORAD) Tracking and Keplerian Element Data

This shows tracking and keplerian element data for the satellite.

Feedback or suggestion? Click here.




ElementValue
Catalog55159
NameONEWEB-0618
Epoch Orbit1120
Epoch Day84.9143805
Epoch Year2023
RAAN253.6282
Inclination86.6232
Eccentricity0.00098
Argument of Perigee337.3949
Mean Anonmoly22.6832
Mean Motion14.65697612
Decay Rate9.72E-06
L11 55159U 23004V 23084.91438050 .00000972 00000+0 17443-3 0 9990
L22 55159 86.6232 253.6282 0009800 337.3949 22.6832 14.65697612 11201



Live tracking and technical data element details for ONEWEB-0618 (NORAD 55159). ONEWEB-0618 can be tracked NOW for your location showing map with azimuth and elevation plus other details from your city location.







IsCatalogInMostPopularTable: catalog: 55159, numindb: 12
Update: records affected: 1



GetName: 55159 ONEWEB-0618

Hit Count: updated at: Mon, 27 Mar 2023 07:28:32 GMT